Du Bois, PA

12:17 PM EST on December 12, 2019 (GMT -0500)
Du Bois-Jefferson County

Weather History for KDUJ - October, 2019

Change the Weather History Date:

Tuesday, October 8, 2019

  Actual Average Record
Temperature  
Mean Temperature 54 °F 51 °F  
Max Temperature 64 °F 61 °F 85 °F (2007)
Min Temperature 44 °F 42 °F 26 °F (2001)
Degree Days  
Heating Degree Days 11 14  
Month to date heating degree days 65 100  
Since 1 July heating degree days 168 346  
Cooling Degree Days 0 0  
Month to date cooling degree days 23 0  
Year to date cooling degree days 430 360  
Growing Degree Days 4 (Base 50)    
Moisture  
Dew Point 45 °F    
Average Humidity 84    
Maximum Humidity 100    
Minimum Humidity 44    
Precipitation  
Precipitation 0.00 in 0.10 in 0.65 in (1976)
Month to date precipitation 1.84 0.84  
Year to date precipitation 38.24 34.08  
Sea Level Pressure  
Sea Level Pressure 30.26 in    
Wind  
Wind Speed 4 mph ()    
Max Wind Speed 14 mph    
Max Gust Speed 18 mph    
Visibility 5.3 miles    
Events Fog    
T = Trace of Precipitation, MM = Missing Value Source: Averaged Metar Reports

Daily Weather History Graph

Daily Weather History Graph

Search for Another Location

Airport or City:

Astronomy

Oct. 08, 2019 Rise Set
Actual Time 7:19 AM EDT 6:46 PM EDT
Civil Twilight 6:51 AM EDT 7:13 PM EDT
Nautical Twilight 6:19 AM EDT 7:45 PM EDT
Astronomical Twilight 5:47 AM EDT 8:17 PM EDT
Moon 4:47 PM EDT (10/8) 2:03 AM EDT (10/8)
Length of Visible Light 12h 22m
Length of Day
11h 26m
Waxing Gibbous, 77% of the Moon is Illuminated
Oct 8
Waxing Gibbous
Oct 13
Full
Oct 21
Last Quarter
Oct 27
New
Nov 4
First Quarter

Hourly Weather History & Observations

Time (EDT) Temp. Windchill Dew Point Humidity Pressure Visibility Wind Dir Wind Speed Gust Speed Precip Events Conditions
12:37 AM 48.9 °F - 48.0 °F 97% 30.24 in 3.0 mi WNW 4.6 mph - N/A   Mostly Cloudy
12:50 AM 50.0 °F - 48.2 °F 94% 30.24 in 0.2 mi Calm Calm - N/A Fog Fog
12:51 AM 50.0 °F - 48.0 °F 93% 30.25 in 0.2 mi WNW 3.5 mph - N/A Fog Fog
1:29 AM 50.0 °F - 48.9 °F 96% 30.24 in 0.5 mi Calm Calm - N/A Fog Fog
1:41 AM 50.0 °F - 48.0 °F 93% 30.24 in 1.0 mi Calm Calm - N/A   Overcast
1:46 AM 50.0 °F - 48.0 °F 93% 30.24 in 2.0 mi NNW 3.5 mph - N/A   Overcast
1:53 AM 50.0 °F - 48.9 °F 96% 30.25 in 5.0 mi Calm Calm - N/A   Overcast
2:53 AM 48.9 °F - 48.0 °F 97% 30.25 in 6.0 mi North 3.5 mph - N/A   Mostly Cloudy
3:05 AM 48.9 °F - 48.0 °F 97% 30.24 in 5.0 mi Calm Calm - N/A   Partly Cloudy
3:27 AM 48.9 °F - 46.9 °F 93% 30.24 in 1.8 mi Calm Calm - N/A   Clear
3:36 AM 48.9 °F - 48.0 °F 97% 30.24 in 1.2 mi NE 3.5 mph - N/A   Scattered Clouds
3:43 AM 48.0 °F - 46.9 °F 96% 30.24 in 0.8 mi NE 3.5 mph - N/A   Mist
3:53 AM 46.9 °F - 46.0 °F 97% 30.25 in 0.2 mi ENE 3.5 mph - N/A Fog Fog
4:06 AM 48.0 °F - 46.0 °F 93% 30.24 in 1.0 mi NE 5.8 mph - N/A   Overcast
4:09 AM 48.0 °F - 46.9 °F 96% 30.24 in 3.0 mi NE 4.6 mph - N/A   Overcast
4:53 AM 48.0 °F - 46.0 °F 93% 30.27 in 9.0 mi NE 4.6 mph - N/A   Overcast
5:53 AM 48.0 °F - 46.0 °F 93% 30.28 in 7.0 mi NE 5.8 mph - N/A   Overcast
6:05 AM 48.0 °F - 46.0 °F 93% 30.27 in 6.0 mi Calm Calm - N/A   Overcast
6:45 AM 48.0 °F - 46.0 °F 93% 30.28 in 1.8 mi ENE 4.6 mph - N/A   Overcast
6:53 AM 48.0 °F - 46.0 °F 93% 30.30 in 1.0 mi ENE 4.6 mph - N/A   Overcast
7:06 AM 48.0 °F - 46.0 °F 93% 30.28 in 2.5 mi ENE 5.8 mph - N/A   Overcast
7:18 AM 48.0 °F - 46.0 °F 93% 30.28 in 1.5 mi ENE 6.9 mph - N/A   Overcast
7:48 AM 46.4 °F 43.5 °F 46.4 °F 100% 30.28 in 2.0 mi East 5.8 mph - N/A   Overcast
7:53 AM 46.9 °F - 46.0 °F 97% 30.30 in 2.0 mi ENE 8.1 mph - N/A   Overcast
8:05 AM 46.9 °F - 45.0 °F 93% 30.29 in 3.0 mi NE 6.9 mph - N/A   Overcast
8:18 AM 48.0 °F - 46.0 °F 93% 30.29 in 2.5 mi NE 4.6 mph - N/A   Overcast
8:38 AM 46.9 °F - 45.0 °F 93% 30.29 in 4.0 mi ENE 6.9 mph - N/A   Overcast
8:53 AM 46.9 °F - 45.0 °F 93% 30.31 in 4.0 mi ENE 5.8 mph - N/A   Overcast
9:53 AM 48.9 °F - 46.9 °F 93% 30.31 in 5.0 mi NE 4.6 mph - N/A   Mostly Cloudy
10:14 AM 52.0 °F - 46.9 °F 83% 30.29 in 10.0 mi ENE 8.1 mph - N/A   Scattered Clouds
10:53 AM 55.0 °F - 45.0 °F 69% 30.31 in 10.0 mi ENE 8.1 mph - N/A   Clear
11:53 AM 57.9 °F - 43.0 °F 58% 30.29 in 10.0 mi East 11.5 mph - N/A   Clear
12:53 PM 62.1 °F - 45.0 °F 53% 30.28 in 10.0 mi NE 9.2 mph - N/A   Clear
1:53 PM 61.0 °F - 43.0 °F 52% 30.25 in 10.0 mi East 4.6 mph - N/A   Clear
2:53 PM 63.0 °F - 42.1 °F 46% 30.25 in 10.0 mi ESE 9.2 mph - N/A   Clear
3:53 PM 63.0 °F - 41.0 °F 45% 30.23 in 10.0 mi East 6.9 mph - N/A   Clear
4:53 PM 63.0 °F - 42.1 °F 46% 30.22 in 10.0 mi ENE 8.1 mph - N/A   Clear
5:53 PM 61.0 °F - 43.0 °F 52% 30.23 in 10.0 mi East 4.6 mph - N/A   Clear
6:53 PM 55.9 °F - 42.1 °F 60% 30.25 in 10.0 mi East 3.5 mph - N/A   Clear
7:53 PM 52.0 °F - 42.1 °F 69% 30.26 in 10.0 mi East 5.8 mph - N/A   Clear
8:53 PM 50.0 °F - 41.0 °F 71% 30.26 in 10.0 mi East 3.5 mph - N/A   Clear
9:53 PM 48.0 °F - 41.0 °F 77% 30.27 in 10.0 mi East 3.5 mph - N/A   Clear
10:53 PM 46.9 °F - 39.9 °F 77% 30.27 in 10.0 mi East 3.5 mph - N/A   Clear
11:53 PM 45.0 °F 42.6 °F 41.0 °F 86% 30.27 in 10.0 mi East 4.6 mph - N/A   Clear